"Pseudo-MPEC" for TR0000

Created 2026 Aug 11 15:35:26 UT using Find_Orb

Click here for an explanation of pseudo-MPECs

 
 Astrometry: 
     TR0000  0C2026 08 05.42791220 58 13.300+01 18 58.51   ~85NK 19.96GVNEOCPF51
     TR0000  0C2026 08 05.43802820 58 23.883+01 23 38.06   ~85NK 19.79GVNEOCPF51
     TR0000  0C2026 08 05.44796720 58 34.480+01 28 17.25   ~85NK 19.49GVNEOCPF51
     TR0000 *KC2026 08 05.81643 21 10 35.93 +05 24 39.4    ~85KZ 18.8 GXNEOCPL51
     TR0000  KC2026 08 05.81755 21 10 38.67 +05 25 41.1    ~85KZ 19.0 GXNEOCPL51
     TR0000  KC2026 08 05.81867 21 10 41.44 +05 26 43.0    ~85KZ 19.2 GXNEOCPL51
     TR0000  KC2026 08 05.85995 21 12 26.15 +06 06 17.3    ~85LK 19.1 GXNEOCPL51
     TR0000  KC2026 08 05.86278 21 12 33.61 +06 09 06.5    ~85LK 18.9 GXNEOCPL51
     TR0000  KC2026 08 05.86564 21 12 41.28 +06 12 00.2    ~85LK 18.9 GXNEOCPL51
     TR0000  KB2026 08 05.87007421 13 07.889+06 16 01.16   ~85LZ 19.3 GXNEOCP595
     TR0000  KB2026 08 05.87318821 13 16.522+06 19 13.26   ~85LZ 18.8 GXNEOCP595
     TR0000  KB2026 08 05.89108 21 13 59.20 +06 37 57.1    ~85M5 18.9 GXNEOCPL04
     TR0000  KB2026 08 05.89622 21 14 13.93 +06 43 29.8    ~85M5 18.7 GXNEOCPL04
     TR0000  KC2026 08 05.89684 21 14 07.50 +06 44 45.1    ~85M5 18.7 GXNEOCPL51
     TR0000  KC2026 08 05.89920 21 14 14.27 +06 47 19.5    ~85M5 19.1 GXNEOCPL51
     TR0000  KC2026 08 05.90154 21 14 21.00 +06 49 53.7    ~85M5 18.7 GXNEOCPL51
     TR0000  KB2026 08 05.90290 21 14 33.41 +06 50 48.5    ~85M5 18.2 GXNEOCPL04
     TR0000  KC2026 08 05.91654121 15 26.362+07 06 15.10   ~85MZ 18.5 GWNEOCP203
     TR0000  KC2026 08 05.92217121 15 43.714+07 12 42.58   ~85MZ 18.6 GWNEOCP203
     TR0000  KB2026 08 05.92466721 15 58.942+07 14 45.28   ~85N5 19.2 GXNEOCPZ43
     TR0000  0C2026 08 05.92806821 16 07.399+07 18 02.27   ~85MZ 18.9 GWNEOCPJ95
     TR0000  0C2026 08 05.93037921 16 14.806+07 20 44.59   ~85MZ 19.0 GWNEOCPJ95
     TR0000  KB2026 08 05.93201521 16 22.373+07 23 20.72   ~85N5 19.2 GXNEOCPZ43
     TR0000  0C2026 08 05.93274521 16 22.416+07 23 31.56   ~85MZ 19.0 GWNEOCPJ95
     TR0000  KB2026 08 05.93946421 16 46.546+07 32 13.34   ~85N5 19.0 GXNEOCPZ43
     TR0000  0B2026 08 05.97668621 18 43.796+08 19 42.26   ~86D5       WNEOCP204
     TR0000  0B2026 08 05.98046521 18 57.196+08 24 41.09   ~86D5       WNEOCP204
     TR0000  0B2026 08 05.98417821 19 10.457+08 29 37.41   ~86D5 18.7 GWNEOCP204
     TR0000  0B2026 08 05.99725821 20 07.162+08 46 00.59   ~860Z 18.5 GWNEOCPJ69
     TR0000  0B2026 08 06.00094021 20 20.954+08 51 07.49   ~860Z 18.5 GWNEOCPJ69
     TR0000  0B2026 08 06.01766221 21 03.961+09 39 01.20   ~868Z       WNEOCPM21
     TR0000  0B2026 08 06.02261821 21 23.076+09 46 23.07   ~868Z 19.0 GWNEOCPM21
     TR0000  KB2026 08 06.49920022 59 47.606+35 29 32.86   ~86D5 17.7 GWNEOCP900
     TR0000  KB2026 08 06.50001023 00 13.150+35 34 40.80   ~86D5 17.2 GWNEOCP900
     TR0000  KB2026 08 06.50082123 00 38.885+35 39 49.57   ~86D5 18.2 GWNEOCP900
     TR0000  KB2026 08 06.54779823 29 30.000+40 50 37.61   ~86E5 17.6 GWNEOCP900
     TR0000  KB2026 08 06.54942023 30 39.523+41 01 41.59   ~86E5 18.0 GWNEOCP900
     TR0000  KB2026 08 06.57713823 52 18.384+44 10 38.70   ~86EK 16.9 GXNEOCPQ06
     TR0000  KB2026 08 06.57895023 53 51.698+44 22 57.51   ~86EK 17.8 GXNEOCPQ06
     TR0000  KB2026 08 06.58076223 55 25.551+44 35 07.53   ~86EK 17.9 GXNEOCPQ06

Station data:
(203) GiaGa Observatory  (N45.541442 E8.995480)  Italy.  Observers S. Foglia,
   G. Galli. Measurer G. Galli. 0.36-m f/5.76 Schmidt-Cassegrain + CCD.
(204) Schiaparelli Observatory  (N45.868292 E8.769720)  Italy.  Observer L.
   Buzzi. 0.84-m f/3.5 reflector + CCD.
(595) Farra d'Isonzo  (N45.915731 E13.525780)  Italy.  Observers S. Aschi, E.
   Pettarin, G. Panterotto. Measurers S. Aschi, E. Pettarin. 0.40-m f/5.15
   reflector + CCD.
(900) Moriyama  (N35.049753 E135.989940)  Japan.  Observer Y. Ikari. 0.26-m
   f/7.0 reflector + CCD.
(F51) Pan-STARRS 1, Haleakala  (N20.707234 W156.255910)  US/Hawaii.
   Observers J. Herman, T. Lowe, P. Minguez, A. Schultz, I. Smith. Measurers
   K. Chambers, T. de Boer, J. Fairlamb, H. Gao, M. Huber, C.-C. Lin, E.
   Magnier, Y. Ramanjooloo, R. Wainscoat, R. Weryk. 1.8-m Ritchey-Chrétien +
   CCD.
(J69) North Observatory, Clanfield  (N50.938986 W1.019660)  UK/England.
   Observer D. Briggs. 0.41-m f/4.5 Newtonian reflector + CCD.
(J95) Great Shefford  (N51.474969 W1.447003)  UK/England.  Observer P.
   Birtwhistle. 0.41-m f/6.3 Schmidt-Cassegrain + CCD.
(L04) ROASTERR-1 Observatory, Cluj-Napoca  (N46.820952 E23.596400)  Romania.
   Observer L. Hudin. 0.1-m f/9 refractor + CCD.
(L51) MARGO, Nauchnij  (N44.729397 E34.016400)  Ukraine.  Observer G. Borisov.
    0.4-m f/2.3 astrograph + CCD.
(M21) Schiaparelli Southern Observatory, Hakos  (S23.236549 E16.361440)
   Namibia.  Observers A. Aletti, F. Bellini, L. Buzzi, G. Galli. Measurer L.
   Buzzi. 0.36-m f/8.4 reflector + CCD.
(Q06) Tarui Observatory, Tarui  (N35.394791 E136.495470)  Japan.  Observer H.
   Watanabe. 0.35-m f/1.9 Schmidt-Cassegrain + CMO.
(Z43) Landehen  (N48.434102 W2.537840)  France.  Observer C. Ratinaud. 0.25-m
   f/4.7 Reflector + CCD.

Orbital elements:  TR0000
   Perihelion 2026 Sep 23.338270 +/- 0.00432 TT =  8:07:06.5 (JD 2461306.838270)
Epoch 2026 Aug  6.0 TT = JDT 2461258.5   Earth MOID: 0.0017   Ve: 0.0143
M 342.245393532 +/- 0.010           Ma: 0.0043                   AutoNEOCP
n   0.367299172 +/- 0.000182        Peri.  257.556249 +/- 0.00055
a   1.931031756 +/- 0.000638        Node   134.975120 +/- 0.000047
e   0.63895615 +/- 0.00014          Incl.    5.673010 +/- 0.0010
P   2.683/980.109d         H 28.35  G  0.15   U  7.0
q 0.697187138 +/- 3.94e-5    Q 3.164876375 +/- 0.00131    (J2000 ecliptic)
From 40 observations 2026 Aug. 5-6 (27.7 hr); mean residual 0".95
Residuals in arcseconds: 
260805 F51  .09-  .22-    260805 L51  .76+  1.0+    260805 J69  1.1+  .78-    
260805 F51  .21-  .18-    260805 L51  .49+  1.5+    260806 J69  1.2-  .05-    
260805 F51  .19+  .18+    260805 L04  .18+  .34-    260806 M21  .17-  .03-    
260805 L51  .50+  .80+    260805 203  .95-  .23-    260806 M21  .02-  .45-    
260805 L51  .71+  1.1+    260805 203  .46-  .07+    260806 900  .61+  .43+    
260805 L51  1.3+  1.4+    260805 Z43  .24-  .22+    260806 900  .38+  .54+    
260805 L51  .71+  1.9+    260805 J95  .01+  .08+    260806 900  .57+  .56+    
260805 L51  .17+  .47+    260805 J95  .00   .01+    260806 900  1.4+  .81+    
260805 L51  .92+  .71+    260805 Z43  .36-  .23-    260806 900  3.7+  2.1+    
260805 595  .44+  .01-    260805 J95  .19-  .18-    260806 Q06  .48-  .81-    
260805 595  .29+  .11-    260805 Z43  .02+  .28+    260806 Q06  .68+  1.9+    
260805 L04  .24+  .65-    260805 204  .07-  .04-    260806 Q06  3.7-  2.7-    
260805 L04  .35-  .75-    260805 204  .07+  .09-    
260805 L51  .75+  .83+    260805 204  .29-  .12-    

Ephemerides (geocentric):
Date (UTC) HH   RA             Dec           delta  r     elong  mag " sig PA
---- --------  ------------   ------------  ------ ------ -----  --- --------
2026 08 11 16  08 23 59.801   +10 37 48.73  .05096 .96444  15.4 34?? .653 140
2026 08 11 17  08 24 03.662   +10 36 35.81  .05138 .96403  15.4 34?? .653 140
2026 08 11 18  08 24 07.465   +10 35 24.12  .05181 .96362  15.4 34?? .654 141
2026 08 11 19  08 24 11.210   +10 34 13.61  .05224 .96321  15.5 34?? .654 141
2026 08 11 20  08 24 14.900   +10 33 04.27  .05266 .96280  15.5 34?? .655 141
2026 08 11 21  08 24 18.535   +10 31 56.07  .05309 .96239  15.5 34?? .655 141
2026 08 11 22  08 24 22.118   +10 30 48.98  .05352 .96198  15.5 34?? .656 141
2026 08 11 23  08 24 25.649   +10 29 42.97  .05394 .96157  15.6 34?? .656 141
2026 08 12 00  08 24 29.130   +10 28 38.02  .05437 .96116  15.6 34?? .656 141
2026 08 12 01  08 24 32.561   +10 27 34.11  .05480 .96075  15.6 34?? .657 141
2026 08 12 02  08 24 35.945   +10 26 31.21  .05522 .96034  15.6 34?? .657 141
2026 08 12 03  08 24 39.282   +10 25 29.30  .05565 .95993  15.7 34?? .657 141
2026 08 12 04  08 24 42.573   +10 24 28.36  .05608 .95952  15.7 34?? .658 141
2026 08 12 05  08 24 45.820   +10 23 28.36  .05650 .95911  15.7 34?? .658 141
2026 08 12 06  08 24 49.023   +10 22 29.28  .05693 .95871  15.7 34?? .659 141
2026 08 12 07  08 24 52.184   +10 21 31.11  .05736 .95830  15.8 34?? .659 141
2026 08 12 08  08 24 55.303   +10 20 33.83  .05778 .95789  15.8 34?? .659 141
2026 08 12 09  08 24 58.382   +10 19 37.41  .05821 .95748  15.8 34?? .660 141
2026 08 12 10  08 25 01.422   +10 18 41.84  .05864 .95707  15.9 34?? .660 141
2026 08 12 11  08 25 04.422   +10 17 47.09  .05906 .95666  15.9 34?? .660 141
2026 08 12 12  08 25 07.385   +10 16 53.16  .05949 .95626  15.9 34?? .661 141
2026 08 12 13  08 25 10.311   +10 16 00.03  .05992 .95585  15.9 34?? .661 141
2026 08 12 14  08 25 13.200   +10 15 07.67  .06035 .95544  16.0 34?? .661 141
2026 08 12 15  08 25 16.055   +10 14 16.08  .06077 .95503  16.0 34?? .662 141
2026 08 12 16  08 25 18.875   +10 13 25.23  .06120 .95463  16.0 34?? .662 141
2026 08 12 17  08 25 21.661   +10 12 35.12  .06163 .95422  16.0 34?? .662 141
2026 08 12 18  08 25 24.414   +10 11 45.72  .06206 .95381  16.1 34?? .662 141
2026 08 12 19  08 25 27.135   +10 10 57.02  .06248 .95340  16.1 34?? .663 141
2026 08 12 20  08 25 29.824   +10 10 09.02  .06291 .95300  16.1 34?? .663 141
2026 08 12 21  08 25 32.483   +10 09 21.68  .06334 .95259  16.1 34?? .663 141
2026 08 12 22  08 25 35.111   +10 08 35.02  .06377 .95218  16.2 34?? .663 141
2026 08 12 23  08 25 37.710   +10 07 49.00  .06420 .95178  16.2 34?? .664 141
2026 08 13 00  08 25 40.279   +10 07 03.61  .06462 .95137  16.2 34?? .664 141
2026 08 13 01  08 25 42.821   +10 06 18.85  .06505 .95096  16.3 34?? .664 141
2026 08 13 02  08 25 45.334   +10 05 34.71  .06548 .95056  16.3 34?? .664 141
2026 08 13 03  08 25 47.821   +10 04 51.16  .06591 .95015  16.3 34?? .665 141
2026 08 13 04  08 25 50.281   +10 04 08.21  .06634 .94974  16.3 34?? .665 141
2026 08 13 05  08 25 52.715   +10 03 25.83  .06676 .94934  16.4 34?? .665 141
2026 08 13 06  08 25 55.124   +10 02 44.02  .06719 .94893  16.4 34?? .665 141
2026 08 13 07  08 25 57.507   +10 02 02.77  .06762 .94853  16.4 34?? .666 141
2026 08 13 08  08 25 59.867   +10 01 22.07  .06805 .94812  16.5 34?? .666 141
2026 08 13 09  08 26 02.202   +10 00 41.90  .06848 .94772  16.5 34?? .666 141
2026 08 13 10  08 26 04.514   +10 00 02.26  .06891 .94731  16.5 34?? .666 141
2026 08 13 11  08 26 06.803   +09 59 23.14  .06934 .94690  16.5 34?? .666 141
2026 08 13 12  08 26 09.070   +09 58 44.53  .06976 .94650  16.6 34?? .667 141
2026 08 13 13  08 26 11.314   +09 58 06.42  .07019 .94609  16.6 34?? .667 141
2026 08 13 14  08 26 13.537   +09 57 28.80  .07062 .94569  16.6 34?? .667 141
2026 08 13 15  08 26 15.739   +09 56 51.66  .07105 .94528  16.6 34?? .667 141